owner,sensor,date,latitude,longitude,air_pressure(mBar),qcFlag 
COMPS,ioos:station:USF.COMPS:C10:1,2017-05-01T00:05:00Z,27.1690,-82.9260,1014.92,1111122 
COMPS,ioos:station:USF.COMPS:C10:1,2017-05-01T00:35:00Z,27.1690,-82.9260,1015.11,1111122 
COMPS,ioos:station:USF.COMPS:C10:1,2017-05-01T01:05:00Z,27.1690,-82.9260,1015.04,1111122 
COMPS,ioos:station:USF.COMPS:C10:1,2017-05-01T01:35:00Z,27.1690,-82.9260,1015.35,1111122 
COMPS,ioos:station:USF.COMPS:C10:1,2017-05-01T02:05:00Z,27.1690,-82.9260,1015.67,1111122 
COMPS,ioos:station:USF.COMPS:C10:1,2017-05-01T02:35:00Z,27.1690,-82.9260,1015.65,1111122 
COMPS,ioos:station:USF.COMPS:C10:1,2017-05-01T03:05:00Z,27.1690,-82.9260,1015.54,1111122 
COMPS,ioos:station:USF.COMPS:C10:1,2017-05-01T03:35:00Z,27.1690,-82.9260,1015.74,1111122 
COMPS,ioos:station:USF.COMPS:C10:1,2017-05-01T04:05:00Z,27.1690,-82.9260,1015.48,1111122 
COMPS,ioos:station:USF.COMPS:C10:1,2017-05-01T04:35:00Z,27.1690,-82.9260,1015.51,1111122 
COMPS,ioos:station:USF.COMPS:C10:1,2017-05-01T05:05:00Z,27.1690,-82.9260,1015.73,1111122 
COMPS,ioos:station:USF.COMPS:C10:1,2017-05-01T05:35:00Z,27.1690,-82.9260,1015.89,1111122 
COMPS,ioos:station:USF.COMPS:C10:1,2017-05-01T06:05:00Z,27.1690,-82.9260,1015.66,1111122 
COMPS,ioos:station:USF.COMPS:C10:1,2017-05-01T06:35:00Z,27.1690,-82.9260,1015.48,1111122 
COMPS,ioos:station:USF.COMPS:C10:1,2017-05-01T07:05:00Z,27.1690,-82.9260,1014.74,1111122 
COMPS,ioos:station:USF.COMPS:C10:1,2017-05-01T07:35:00Z,27.1690,-82.9260,1014.66,1111122 
COMPS,ioos:station:USF.COMPS:C10:1,2017-05-01T08:05:00Z,27.1690,-82.9260,1014.22,1111122 
COMPS,ioos:station:USF.COMPS:C10:1,2017-05-01T08:35:00Z,27.1690,-82.9260,1014.19,1111122 
COMPS,ioos:station:USF.COMPS:C10:1,2017-05-01T09:05:00Z,27.1690,-82.9260,1014.19,1111122 
COMPS,ioos:station:USF.COMPS:C10:1,2017-05-01T09:35:00Z,27.1690,-82.9260,1014.13,1111122 
COMPS,ioos:station:USF.COMPS:C10:1,2017-05-01T10:05:00Z,27.1690,-82.9260,1014.55,1111122 
COMPS,ioos:station:USF.COMPS:C10:1,2017-05-01T10:35:00Z,27.1690,-82.9260,1014.22,1111122 
COMPS,ioos:station:USF.COMPS:C10:1,2017-05-01T11:05:00Z,27.1690,-82.9260,1014.59,1111122 
COMPS,ioos:station:USF.COMPS:C10:1,2017-05-01T11:35:00Z,27.1690,-82.9260,1014.99,1111122 
COMPS,ioos:station:USF.COMPS:C10:1,2017-05-01T12:05:00Z,27.1690,-82.9260,1015.37,1111122 
COMPS,ioos:station:USF.COMPS:C10:1,2017-05-01T12:35:00Z,27.1690,-82.9260,1015.88,1111122 
COMPS,ioos:station:USF.COMPS:C10:1,2017-05-01T13:05:00Z,27.1690,-82.9260,1015.95,1111122 
COMPS,ioos:station:USF.COMPS:C10:1,2017-05-01T13:35:00Z,27.1690,-82.9260,1016.41,1111122 
COMPS,ioos:station:USF.COMPS:C10:1,2017-05-01T14:05:00Z,27.1690,-82.9260,1016.79,1111122 
COMPS,ioos:station:USF.COMPS:C10:1,2017-05-01T14:35:00Z,27.1690,-82.9260,1016.85,1111122 
COMPS,ioos:station:USF.COMPS:C10:1,2017-05-01T15:05:00Z,27.1690,-82.9260,1016.81,1111122 
COMPS,ioos:station:USF.COMPS:C10:1,2017-05-01T15:35:00Z,27.1690,-82.9260,1017.24,1111122 
COMPS,ioos:station:USF.COMPS:C10:1,2017-05-01T16:05:00Z,27.1690,-82.9260,1017.18,1111122 
COMPS,ioos:station:USF.COMPS:C10:1,2017-05-01T16:35:00Z,27.1690,-82.9260,1016.74,1111122 
COMPS,ioos:station:USF.COMPS:C10:1,2017-05-01T17:05:00Z,27.1690,-82.9260,1016.35,1111122 
COMPS,ioos:station:USF.COMPS:C10:1,2017-05-01T17:35:00Z,27.1690,-82.9260,1016.54,1111122 
COMPS,ioos:station:USF.COMPS:C10:1,2017-05-01T18:05:00Z,27.1690,-82.9260,1016.41,1111122 
COMPS,ioos:station:USF.COMPS:C10:1,2017-05-01T18:35:00Z,27.1690,-82.9260,1015.87,1111122 
COMPS,ioos:station:USF.COMPS:C10:1,2017-05-01T19:05:00Z,27.1690,-82.9260,1015.69,1111122 
COMPS,ioos:station:USF.COMPS:C10:1,2017-05-01T19:35:00Z,27.1690,-82.9260,1015.39,1111122 
COMPS,ioos:station:USF.COMPS:C10:1,2017-05-01T20:05:00Z,27.1690,-82.9260,1014.86,1111122 
COMPS,ioos:station:USF.COMPS:C10:1,2017-05-01T20:35:00Z,27.1690,-82.9260,1013.98,1111122 
COMPS,ioos:station:USF.COMPS:C10:1,2017-05-01T21:05:00Z,27.1690,-82.9260,1013.48,1111122 
COMPS,ioos:station:USF.COMPS:C10:1,2017-05-01T21:35:00Z,27.1690,-82.9260,1013.72,1111122 
COMPS,ioos:station:USF.COMPS:C10:1,2017-05-01T22:05:00Z,27.1690,-82.9260,1013.65,1111122 
COMPS,ioos:station:USF.COMPS:C10:1,2017-05-01T22:35:00Z,27.1690,-82.9260,1012.61,1111122 
COMPS,ioos:station:USF.COMPS:C10:1,2017-05-01T23:05:00Z,27.1690,-82.9260,1012.14,1111122 
COMPS,ioos:station:USF.COMPS:C10:1,2017-05-01T23:35:00Z,27.1690,-82.9260,1011.85,1111122 
COMPS,ioos:station:USF.COMPS:C10:1,2017-05-02T00:05:00Z,27.1690,-82.9260,1011.92,1111122 
COMPS,ioos:station:USF.COMPS:C10:1,2017-05-02T00:35:00Z,27.1690,-82.9260,1012.37,1111122 
COMPS,ioos:station:USF.COMPS:C10:1,2017-05-02T01:05:00Z,27.1690,-82.9260,1012.55,1111122 
COMPS,ioos:station:USF.COMPS:C10:1,2017-05-02T01:35:00Z,27.1690,-82.9260,1013.13,1111122 
COMPS,ioos:station:USF.COMPS:C10:1,2017-05-02T02:05:00Z,27.1690,-82.9260,1013.73,1111122 
COMPS,ioos:station:USF.COMPS:C10:1,2017-05-02T02:35:00Z,27.1690,-82.9260,1013.99,1111122 
COMPS,ioos:station:USF.COMPS:C10:1,2017-05-02T03:05:00Z,27.1690,-82.9260,1014.23,1111122 
COMPS,ioos:station:USF.COMPS:C10:1,2017-05-02T03:35:00Z,27.1690,-82.9260,1014.34,1111122 
COMPS,ioos:station:USF.COMPS:C10:1,2017-05-02T04:05:00Z,27.1690,-82.9260,1014.47,1111122 
COMPS,ioos:station:USF.COMPS:C10:1,2017-05-02T04:35:00Z,27.1690,-82.9260,1014.17,1111122 
COMPS,ioos:station:USF.COMPS:C10:1,2017-05-02T05:05:00Z,27.1690,-82.9260,1013.83,1111122 
COMPS,ioos:station:USF.COMPS:C10:1,2017-05-02T05:35:00Z,27.1690,-82.9260,1014.08,1111122 
COMPS,ioos:station:USF.COMPS:C10:1,2017-05-02T06:05:00Z,27.1690,-82.9260,1014.15,1111122 
COMPS,ioos:station:USF.COMPS:C10:1,2017-05-02T06:35:00Z,27.1690,-82.9260,1014.13,1111122 
COMPS,ioos:station:USF.COMPS:C10:1,2017-05-02T07:05:00Z,27.1690,-82.9260,1013.74,1111122 
COMPS,ioos:station:USF.COMPS:C10:1,2017-05-02T07:35:00Z,27.1690,-82.9260,1013.72,1111122 
COMPS,ioos:station:USF.COMPS:C10:1,2017-05-02T08:05:00Z,27.1690,-82.9260,1013.72,1111122 
COMPS,ioos:station:USF.COMPS:C10:1,2017-05-02T08:35:00Z,27.1690,-82.9260,1013.99,1111122 
COMPS,ioos:station:USF.COMPS:C10:1,2017-05-02T09:05:00Z,27.1690,-82.9260,1014.13,1111122 
COMPS,ioos:station:USF.COMPS:C10:1,2017-05-02T09:35:00Z,27.1690,-82.9260,1014.13,1111122 
COMPS,ioos:station:USF.COMPS:C10:1,2017-05-02T10:05:00Z,27.1690,-82.9260,1014.13,1111122 
COMPS,ioos:station:USF.COMPS:C10:1,2017-05-02T10:35:00Z,27.1690,-82.9260,1014.2,1111122 
COMPS,ioos:station:USF.COMPS:C10:1,2017-05-02T11:05:00Z,27.1690,-82.9260,1014.51,1111122 
COMPS,ioos:station:USF.COMPS:C10:1,2017-05-02T11:35:00Z,27.1690,-82.9260,1014.83,1111122 
COMPS,ioos:station:USF.COMPS:C10:1,2017-05-02T12:05:00Z,27.1690,-82.9260,1015.01,1111122 
COMPS,ioos:station:USF.COMPS:C10:1,2017-05-02T12:35:00Z,27.1690,-82.9260,1015.01,1111122 
COMPS,ioos:station:USF.COMPS:C10:1,2017-05-02T13:05:00Z,27.1690,-82.9260,1015.22,1111122 
COMPS,ioos:station:USF.COMPS:C10:1,2017-05-02T13:35:00Z,27.1690,-82.9260,1015.24,1111122 
COMPS,ioos:station:USF.COMPS:C10:1,2017-05-02T14:05:00Z,27.1690,-82.9260,1015.47,1111122 
COMPS,ioos:station:USF.COMPS:C10:1,2017-05-02T14:35:00Z,27.1690,-82.9260,1015.46,1111122 
COMPS,ioos:station:USF.COMPS:C10:1,2017-05-02T15:05:00Z,27.1690,-82.9260,1015.46,1111122 
COMPS,ioos:station:USF.COMPS:C10:1,2017-05-02T15:35:00Z,27.1690,-82.9260,1015.47,1111122 
COMPS,ioos:station:USF.COMPS:C10:1,2017-05-02T16:05:00Z,27.1690,-82.9260,1015.46,1111122 
COMPS,ioos:station:USF.COMPS:C10:1,2017-05-02T16:35:00Z,27.1690,-82.9260,1015.31,1111122 
COMPS,ioos:station:USF.COMPS:C10:1,2017-05-02T17:05:00Z,27.1690,-82.9260,1015.2,1111122 
COMPS,ioos:station:USF.COMPS:C10:1,2017-05-02T17:35:00Z,27.1690,-82.9260,1015.01,1111122 
COMPS,ioos:station:USF.COMPS:C10:1,2017-05-02T21:05:00Z,27.1690,-82.9260,1013.14,1111122 
COMPS,ioos:station:USF.COMPS:C10:1,2017-05-02T21:35:00Z,27.1690,-82.9260,1013.14,1111122 
COMPS,ioos:station:USF.COMPS:C10:1,2017-05-02T22:05:00Z,27.1690,-82.9260,1013.15,1111122 
COMPS,ioos:station:USF.COMPS:C10:1,2017-05-02T22:35:00Z,27.1690,-82.9260,1013.0,1111122 
COMPS,ioos:station:USF.COMPS:C10:1,2017-05-03T00:05:00Z,27.1690,-82.9260,1013.03,1111122 
COMPS,ioos:station:USF.COMPS:C10:1,2017-05-03T00:35:00Z,27.1690,-82.9260,1013.48,1111122 
COMPS,ioos:station:USF.COMPS:C10:1,2017-05-03T01:05:00Z,27.1690,-82.9260,1013.92,1111122 
COMPS,ioos:station:USF.COMPS:C10:1,2017-05-03T03:05:00Z,27.1690,-82.9260,1014.92,1111122 
COMPS,ioos:station:USF.COMPS:C10:1,2017-05-03T03:35:00Z,27.1690,-82.9260,1014.94,1111122 
COMPS,ioos:station:USF.COMPS:C10:1,2017-05-03T04:05:00Z,27.1690,-82.9260,1015.01,1111122 
COMPS,ioos:station:USF.COMPS:C10:1,2017-05-03T04:35:00Z,27.1690,-82.9260,1014.66,1111122 
COMPS,ioos:station:USF.COMPS:C10:1,2017-05-03T05:05:00Z,27.1690,-82.9260,1014.44,1111122 
COMPS,ioos:station:USF.COMPS:C10:1,2017-05-03T05:35:00Z,27.1690,-82.9260,1014.3,1111122 
COMPS,ioos:station:USF.COMPS:C10:1,2017-05-03T06:05:00Z,27.1690,-82.9260,1013.99,1111122 
COMPS,ioos:station:USF.COMPS:C10:1,2017-05-03T06:35:00Z,27.1690,-82.9260,1013.72,1111122 
COMPS,ioos:station:USF.COMPS:C10:1,2017-05-03T07:05:00Z,27.1690,-82.9260,1013.51,1111122 
COMPS,ioos:station:USF.COMPS:C10:1,2017-05-03T07:35:00Z,27.1690,-82.9260,1013.17,1111122 
COMPS,ioos:station:USF.COMPS:C10:1,2017-05-03T08:05:00Z,27.1690,-82.9260,1013.17,1111122 
COMPS,ioos:station:USF.COMPS:C10:1,2017-05-03T08:35:00Z,27.1690,-82.9260,1013.36,1111122 
COMPS,ioos:station:USF.COMPS:C10:1,2017-05-03T09:05:00Z,27.1690,-82.9260,1013.69,1111122 
COMPS,ioos:station:USF.COMPS:C10:1,2017-05-03T09:35:00Z,27.1690,-82.9260,1013.66,1111122 
COMPS,ioos:station:USF.COMPS:C10:1,2017-05-03T10:05:00Z,27.1690,-82.9260,1013.72,1111122 
COMPS,ioos:station:USF.COMPS:C10:1,2017-05-03T10:35:00Z,27.1690,-82.9260,1013.87,1111122 
COMPS,ioos:station:USF.COMPS:C10:1,2017-05-03T11:05:00Z,27.1690,-82.9260,1014.26,1111122 
COMPS,ioos:station:USF.COMPS:C10:1,2017-05-03T11:35:00Z,27.1690,-82.9260,1014.7,1111122 
COMPS,ioos:station:USF.COMPS:C10:1,2017-05-03T12:05:00Z,27.1690,-82.9260,1014.85,1111122 
COMPS,ioos:station:USF.COMPS:C10:1,2017-05-03T12:35:00Z,27.1690,-82.9260,1015.0,1111122 
COMPS,ioos:station:USF.COMPS:C10:1,2017-05-03T13:05:00Z,27.1690,-82.9260,1015.0,1111122 
COMPS,ioos:station:USF.COMPS:C10:1,2017-05-03T13:35:00Z,27.1690,-82.9260,1015.09,1111122 
COMPS,ioos:station:USF.COMPS:C10:1,2017-05-03T14:05:00Z,27.1690,-82.9260,1015.09,1111122 
COMPS,ioos:station:USF.COMPS:C10:1,2017-05-03T14:35:00Z,27.1690,-82.9260,1015.08,1111122 
COMPS,ioos:station:USF.COMPS:C10:1,2017-05-03T15:05:00Z,27.1690,-82.9260,1015.08,1111122 
COMPS,ioos:station:USF.COMPS:C10:1,2017-05-03T15:35:00Z,27.1690,-82.9260,1015.04,1111122 
COMPS,ioos:station:USF.COMPS:C10:1,2017-05-03T16:05:00Z,27.1690,-82.9260,1014.8,1111122 
COMPS,ioos:station:USF.COMPS:C10:1,2017-05-03T16:35:00Z,27.1690,-82.9260,1014.58,1111122 
COMPS,ioos:station:USF.COMPS:C10:1,2017-05-03T17:05:00Z,27.1690,-82.9260,1014.42,1111122 
COMPS,ioos:station:USF.COMPS:C10:1,2017-05-03T17:35:00Z,27.1690,-82.9260,1013.98,1111122 
COMPS,ioos:station:USF.COMPS:C10:1,2017-05-03T18:05:00Z,27.1690,-82.9260,1013.44,1111122 
COMPS,ioos:station:USF.COMPS:C10:1,2017-05-03T18:35:00Z,27.1690,-82.9260,1012.98,1111122 
COMPS,ioos:station:USF.COMPS:C10:1,2017-05-03T19:05:00Z,27.1690,-82.9260,1012.52,1111122 
COMPS,ioos:station:USF.COMPS:C10:1,2017-05-03T19:35:00Z,27.1690,-82.9260,1012.23,1111122 
COMPS,ioos:station:USF.COMPS:C10:1,2017-05-03T20:05:00Z,27.1690,-82.9260,1012.29,1111122 
COMPS,ioos:station:USF.COMPS:C10:1,2017-05-03T20:35:00Z,27.1690,-82.9260,1012.45,1111122 
COMPS,ioos:station:USF.COMPS:C10:1,2017-05-03T21:05:00Z,27.1690,-82.9260,1012.36,1111122 
COMPS,ioos:station:USF.COMPS:C10:1,2017-05-03T21:35:00Z,27.1690,-82.9260,1011.96,1111122 
COMPS,ioos:station:USF.COMPS:C10:1,2017-05-03T22:05:00Z,27.1690,-82.9260,1011.7,1111122 
COMPS,ioos:station:USF.COMPS:C10:1,2017-05-03T22:35:00Z,27.1690,-82.9260,1011.43,1111122 
COMPS,ioos:station:USF.COMPS:C10:1,2017-05-03T23:05:00Z,27.1690,-82.9260,1011.69,1111122 
COMPS,ioos:station:USF.COMPS:C10:1,2017-05-03T23:35:00Z,27.1690,-82.9260,1012.21,1111122 
COMPS,ioos:station:USF.COMPS:C10:1,2017-05-04T00:05:00Z,27.1690,-82.9260,1012.68,1111122 
COMPS,ioos:station:USF.COMPS:C10:1,2017-05-04T00:35:00Z,27.1690,-82.9260,1013.07,1111122 
COMPS,ioos:station:USF.COMPS:C10:1,2017-05-04T01:05:00Z,27.1690,-82.9260,1013.21,1111122 
COMPS,ioos:station:USF.COMPS:C10:1,2017-05-04T01:35:00Z,27.1690,-82.9260,1013.42,1111122 
COMPS,ioos:station:USF.COMPS:C10:1,2017-05-04T02:05:00Z,27.1690,-82.9260,1013.72,1111122 
COMPS,ioos:station:USF.COMPS:C10:1,2017-05-04T02:35:00Z,27.1690,-82.9260,1013.71,1111122 
COMPS,ioos:station:USF.COMPS:C10:1,2017-05-04T03:05:00Z,27.1690,-82.9260,1013.92,1111122 
COMPS,ioos:station:USF.COMPS:C10:1,2017-05-04T03:35:00Z,27.1690,-82.9260,1014.13,1111122 
COMPS,ioos:station:USF.COMPS:C10:1,2017-05-04T04:05:00Z,27.1690,-82.9260,1013.74,1111122 
COMPS,ioos:station:USF.COMPS:C10:1,2017-05-04T04:35:00Z,27.1690,-82.9260,1013.49,1111122 
COMPS,ioos:station:USF.COMPS:C10:1,2017-05-04T05:05:00Z,27.1690,-82.9260,1013.02,1111122 
COMPS,ioos:station:USF.COMPS:C10:1,2017-05-04T05:35:00Z,27.1690,-82.9260,1012.51,1111122 
COMPS,ioos:station:USF.COMPS:C10:1,2017-05-04T06:05:00Z,27.1690,-82.9260,1011.91,1111122 
COMPS,ioos:station:USF.COMPS:C10:1,2017-05-04T06:35:00Z,27.1690,-82.9260,1011.38,1111122 
COMPS,ioos:station:USF.COMPS:C10:1,2017-05-04T07:05:00Z,27.1690,-82.9260,1011.29,1111122 
COMPS,ioos:station:USF.COMPS:C10:1,2017-05-04T07:35:00Z,27.1690,-82.9260,1010.76,1111122 
COMPS,ioos:station:USF.COMPS:C10:1,2017-05-04T08:05:00Z,27.1690,-82.9260,1009.98,1111122 
COMPS,ioos:station:USF.COMPS:C10:1,2017-05-04T08:35:00Z,27.1690,-82.9260,1009.97,1111122 
COMPS,ioos:station:USF.COMPS:C10:1,2017-05-04T09:05:00Z,27.1690,-82.9260,1010.35,1111122 
COMPS,ioos:station:USF.COMPS:C10:1,2017-05-04T09:35:00Z,27.1690,-82.9260,1010.52,1111122 
COMPS,ioos:station:USF.COMPS:C10:1,2017-05-04T10:05:00Z,27.1690,-82.9260,1010.52,1111122 
COMPS,ioos:station:USF.COMPS:C10:1,2017-05-04T10:35:00Z,27.1690,-82.9260,1010.51,1111122 
COMPS,ioos:station:USF.COMPS:C10:1,2017-05-04T11:05:00Z,27.1690,-82.9260,1010.14,1111122 
COMPS,ioos:station:USF.COMPS:C10:1,2017-05-04T11:35:00Z,27.1690,-82.9260,1010.45,1111122 
COMPS,ioos:station:USF.COMPS:C10:1,2017-05-04T12:05:00Z,27.1690,-82.9260,1010.62,1111122 
COMPS,ioos:station:USF.COMPS:C10:1,2017-05-04T12:35:00Z,27.1690,-82.9260,1010.94,1111122 
COMPS,ioos:station:USF.COMPS:C10:1,2017-05-04T13:05:00Z,27.1690,-82.9260,1010.83,1111122 
COMPS,ioos:station:USF.COMPS:C10:1,2017-05-04T13:35:00Z,27.1690,-82.9260,1010.83,1111122 
COMPS,ioos:station:USF.COMPS:C10:1,2017-05-04T14:05:00Z,27.1690,-82.9260,1010.78,1111122 
COMPS,ioos:station:USF.COMPS:C10:1,2017-05-04T14:35:00Z,27.1690,-82.9260,1010.72,1111122 
COMPS,ioos:station:USF.COMPS:C10:1,2017-05-04T15:05:00Z,27.1690,-82.9260,1010.78,1111122 
COMPS,ioos:station:USF.COMPS:C10:1,2017-05-04T15:35:00Z,27.1690,-82.9260,1011.2,1111122 
COMPS,ioos:station:USF.COMPS:C10:1,2017-05-04T16:05:00Z,27.1690,-82.9260,1011.15,1111122 
COMPS,ioos:station:USF.COMPS:C10:1,2017-05-04T16:35:00Z,27.1690,-82.9260,1010.75,1111122 
COMPS,ioos:station:USF.COMPS:C10:1,2017-05-04T17:05:00Z,27.1690,-82.9260,1010.18,1111122 
COMPS,ioos:station:USF.COMPS:C10:1,2017-05-04T17:35:00Z,27.1690,-82.9260,1010.39,1111122 
COMPS,ioos:station:USF.COMPS:C10:1,2017-05-04T18:05:00Z,27.1690,-82.9260,1010.18,1111122 
COMPS,ioos:station:USF.COMPS:C10:1,2017-05-04T18:35:00Z,27.1690,-82.9260,1009.8,1111122 
COMPS,ioos:station:USF.COMPS:C10:1,2017-05-04T19:05:00Z,27.1690,-82.9260,1009.45,1111122 
COMPS,ioos:station:USF.COMPS:C10:1,2017-05-04T19:35:00Z,27.1690,-82.9260,1009.49,1111122 
COMPS,ioos:station:USF.COMPS:C10:1,2017-05-04T20:05:00Z,27.1690,-82.9260,1008.83,1111122 
COMPS,ioos:station:USF.COMPS:C10:1,2017-05-04T20:35:00Z,27.1690,-82.9260,1008.74,1111122 
COMPS,ioos:station:USF.COMPS:C10:1,2017-05-04T21:05:00Z,27.1690,-82.9260,1008.81,1111122 
COMPS,ioos:station:USF.COMPS:C10:1,2017-05-04T21:35:00Z,27.1690,-82.9260,1009.47,1111122 
COMPS,ioos:station:USF.COMPS:C10:1,2017-05-04T22:05:00Z,27.1690,-82.9260,1009.45,1111122 
COMPS,ioos:station:USF.COMPS:C10:1,2017-05-04T22:35:00Z,27.1690,-82.9260,1008.61,1111122 
COMPS,ioos:station:USF.COMPS:C10:1,2017-05-04T23:05:00Z,27.1690,-82.9260,1008.14,1111122 
COMPS,ioos:station:USF.COMPS:C10:1,2017-05-04T23:35:00Z,27.1690,-82.9260,1007.71,1111122 
COMPS,ioos:station:USF.COMPS:C10:1,2017-05-05T00:05:00Z,27.1690,-82.9260,1007.23,1111122 
COMPS,ioos:station:USF.COMPS:C10:1,2017-05-05T00:35:00Z,27.1690,-82.9260,1006.76,1111122 
COMPS,ioos:station:USF.COMPS:C10:1,2017-05-05T01:05:00Z,27.1690,-82.9260,1006.68,1111122 
COMPS,ioos:station:USF.COMPS:C10:1,2017-05-05T01:35:00Z,27.1690,-82.9260,1006.66,1111122 
COMPS,ioos:station:USF.COMPS:C10:1,2017-05-05T02:05:00Z,27.1690,-82.9260,1007.13,1111122 
COMPS,ioos:station:USF.COMPS:C10:1,2017-05-05T02:35:00Z,27.1690,-82.9260,1007.7,1111122 
COMPS,ioos:station:USF.COMPS:C10:1,2017-05-05T03:05:00Z,27.1690,-82.9260,1007.63,1111122 
COMPS,ioos:station:USF.COMPS:C10:1,2017-05-05T03:35:00Z,27.1690,-82.9260,1007.59,1111122 
COMPS,ioos:station:USF.COMPS:C10:1,2017-05-05T04:05:00Z,27.1690,-82.9260,1007.6,1111122 
COMPS,ioos:station:USF.COMPS:C10:1,2017-05-05T04:35:00Z,27.1690,-82.9260,1007.33,1111122 
COMPS,ioos:station:USF.COMPS:C10:1,2017-05-05T05:05:00Z,27.1690,-82.9260,1007.29,1111122 
COMPS,ioos:station:USF.COMPS:C10:1,2017-05-05T05:35:00Z,27.1690,-82.9260,1007.14,1111122 
COMPS,ioos:station:USF.COMPS:C10:1,2017-05-05T06:05:00Z,27.1690,-82.9260,1006.49,1111122 
COMPS,ioos:station:USF.COMPS:C10:1,2017-05-05T06:35:00Z,27.1690,-82.9260,1005.98,1111122 
COMPS,ioos:station:USF.COMPS:C10:1,2017-05-05T07:05:00Z,27.1690,-82.9260,1005.86,1111122 
COMPS,ioos:station:USF.COMPS:C10:1,2017-05-05T07:35:00Z,27.1690,-82.9260,1005.64,1111122 
COMPS,ioos:station:USF.COMPS:C10:1,2017-05-05T08:05:00Z,27.1690,-82.9260,1005.46,1111122 
COMPS,ioos:station:USF.COMPS:C10:1,2017-05-05T08:35:00Z,27.1690,-82.9260,1005.8,1111122 
COMPS,ioos:station:USF.COMPS:C10:1,2017-05-05T09:05:00Z,27.1690,-82.9260,1005.88,1111122 
COMPS,ioos:station:USF.COMPS:C10:1,2017-05-05T09:35:00Z,27.1690,-82.9260,1006.08,1111122 
COMPS,ioos:station:USF.COMPS:C10:1,2017-05-05T10:05:00Z,27.1690,-82.9260,1006.32,1111122 
COMPS,ioos:station:USF.COMPS:C10:1,2017-05-05T10:35:00Z,27.1690,-82.9260,1006.36,1111122 
COMPS,ioos:station:USF.COMPS:C10:1,2017-05-05T11:05:00Z,27.1690,-82.9260,1006.78,1111122 
COMPS,ioos:station:USF.COMPS:C10:1,2017-05-05T11:35:00Z,27.1690,-82.9260,1006.97,1111122 
COMPS,ioos:station:USF.COMPS:C10:1,2017-05-05T12:05:00Z,27.1690,-82.9260,1007.15,1111122 
COMPS,ioos:station:USF.COMPS:C10:1,2017-05-05T12:35:00Z,27.1690,-82.9260,1007.66,1111122 
COMPS,ioos:station:USF.COMPS:C10:1,2017-05-05T13:05:00Z,27.1690,-82.9260,1007.81,1111122 
COMPS,ioos:station:USF.COMPS:C10:1,2017-05-05T13:35:00Z,27.1690,-82.9260,1008.26,1111122 
COMPS,ioos:station:USF.COMPS:C10:1,2017-05-05T14:05:00Z,27.1690,-82.9260,1008.56,1111122 
COMPS,ioos:station:USF.COMPS:C10:1,2017-05-05T14:35:00Z,27.1690,-82.9260,1008.78,1111122 
COMPS,ioos:station:USF.COMPS:C10:1,2017-05-05T16:05:00Z,27.1690,-82.9260,1009.3,1111122 
COMPS,ioos:station:USF.COMPS:C10:1,2017-05-05T16:35:00Z,27.1690,-82.9260,1009.0,1111122 
COMPS,ioos:station:USF.COMPS:C10:1,2017-05-05T17:05:00Z,27.1690,-82.9260,1009.32,1111122 
COMPS,ioos:station:USF.COMPS:C10:1,2017-05-05T17:35:00Z,27.1690,-82.9260,1009.3,1111122 
COMPS,ioos:station:USF.COMPS:C10:1,2017-05-05T18:05:00Z,27.1690,-82.9260,1009.21,1111122 
COMPS,ioos:station:USF.COMPS:C10:1,2017-05-05T18:35:00Z,27.1690,-82.9260,1009.17,1111122 
COMPS,ioos:station:USF.COMPS:C10:1,2017-05-05T19:05:00Z,27.1690,-82.9260,1008.89,1111122 
COMPS,ioos:station:USF.COMPS:C10:1,2017-05-05T19:35:00Z,27.1690,-82.9260,1008.52,1111122 
COMPS,ioos:station:USF.COMPS:C10:1,2017-05-05T20:05:00Z,27.1690,-82.9260,1008.08,1111122 
COMPS,ioos:station:USF.COMPS:C10:1,2017-05-05T20:35:00Z,27.1690,-82.9260,1007.99,1111122 
COMPS,ioos:station:USF.COMPS:C10:1,2017-05-05T21:05:00Z,27.1690,-82.9260,1007.83,1111122 
COMPS,ioos:station:USF.COMPS:C10:1,2017-05-05T21:35:00Z,27.1690,-82.9260,1007.61,1111122 
COMPS,ioos:station:USF.COMPS:C10:1,2017-05-05T22:05:00Z,27.1690,-82.9260,1007.47,1111122 
COMPS,ioos:station:USF.COMPS:C10:1,2017-05-05T22:35:00Z,27.1690,-82.9260,1007.46,1111122 
COMPS,ioos:station:USF.COMPS:C10:1,2017-05-05T23:05:00Z,27.1690,-82.9260,1007.7,1111122 
COMPS,ioos:station:USF.COMPS:C10:1,2017-05-05T23:35:00Z,27.1690,-82.9260,1007.68,1111122 
COMPS,ioos:station:USF.COMPS:C10:1,2017-05-06T00:05:00Z,27.1690,-82.9260,1007.71,1111122 
COMPS,ioos:station:USF.COMPS:C10:1,2017-05-06T00:35:00Z,27.1690,-82.9260,1007.72,1111122 
COMPS,ioos:station:USF.COMPS:C10:1,2017-05-06T01:05:00Z,27.1690,-82.9260,1008.1,1111122 
COMPS,ioos:station:USF.COMPS:C10:1,2017-05-06T01:35:00Z,27.1690,-82.9260,1008.54,1111122 
COMPS,ioos:station:USF.COMPS:C10:1,2017-05-06T02:05:00Z,27.1690,-82.9260,1008.87,1111122 
COMPS,ioos:station:USF.COMPS:C10:1,2017-05-06T02:35:00Z,27.1690,-82.9260,1009.05,1111122 
COMPS,ioos:station:USF.COMPS:C10:1,2017-05-06T03:05:00Z,27.1690,-82.9260,1009.23,1111122 
COMPS,ioos:station:USF.COMPS:C10:1,2017-05-06T03:35:00Z,27.1690,-82.9260,1009.44,1111122 
COMPS,ioos:station:USF.COMPS:C10:1,2017-05-06T04:05:00Z,27.1690,-82.9260,1009.66,1111122 
COMPS,ioos:station:USF.COMPS:C10:1,2017-05-06T04:35:00Z,27.1690,-82.9260,1009.84,1111122 
COMPS,ioos:station:USF.COMPS:C10:1,2017-05-06T05:05:00Z,27.1690,-82.9260,1009.98,1111122 
COMPS,ioos:station:USF.COMPS:C10:1,2017-05-06T05:35:00Z,27.1690,-82.9260,1010.03,1111122 
COMPS,ioos:station:USF.COMPS:C10:1,2017-05-06T06:05:00Z,27.1690,-82.9260,1009.83,1111122 
COMPS,ioos:station:USF.COMPS:C10:1,2017-05-06T06:35:00Z,27.1690,-82.9260,1009.76,1111122 
COMPS,ioos:station:USF.COMPS:C10:1,2017-05-06T07:05:00Z,27.1690,-82.9260,1009.58,1111122 
COMPS,ioos:station:USF.COMPS:C10:1,2017-05-06T07:35:00Z,27.1690,-82.9260,1009.51,1111122 
COMPS,ioos:station:USF.COMPS:C10:1,2017-05-06T08:05:00Z,27.1690,-82.9260,1009.62,1111122 
COMPS,ioos:station:USF.COMPS:C10:1,2017-05-06T08:35:00Z,27.1690,-82.9260,1009.9,1111122 
COMPS,ioos:station:USF.COMPS:C10:1,2017-05-06T11:05:00Z,27.1690,-82.9260,1011.35,1111122 
COMPS,ioos:station:USF.COMPS:C10:1,2017-05-06T11:35:00Z,27.1690,-82.9260,1011.66,1111122 
COMPS,ioos:station:USF.COMPS:C10:1,2017-05-06T12:05:00Z,27.1690,-82.9260,1011.81,1111122 
COMPS,ioos:station:USF.COMPS:C10:1,2017-05-06T12:35:00Z,27.1690,-82.9260,1012.17,1111122 
COMPS,ioos:station:USF.COMPS:C10:1,2017-05-06T13:05:00Z,27.1690,-82.9260,1012.24,1111122 
COMPS,ioos:station:USF.COMPS:C10:1,2017-05-06T13:35:00Z,27.1690,-82.9260,1012.83,1111122 
COMPS,ioos:station:USF.COMPS:C10:1,2017-05-06T14:05:00Z,27.1690,-82.9260,1013.01,1111122 
COMPS,ioos:station:USF.COMPS:C10:1,2017-05-06T14:35:00Z,27.1690,-82.9260,1013.21,1111122 
COMPS,ioos:station:USF.COMPS:C10:1,2017-05-06T15:05:00Z,27.1690,-82.9260,1013.45,1111122 
COMPS,ioos:station:USF.COMPS:C10:1,2017-05-06T15:35:00Z,27.1690,-82.9260,1013.36,1111122 
COMPS,ioos:station:USF.COMPS:C10:1,2017-05-06T16:05:00Z,27.1690,-82.9260,1013.37,1111122 
COMPS,ioos:station:USF.COMPS:C10:1,2017-05-06T16:35:00Z,27.1690,-82.9260,1013.23,1111122 
COMPS,ioos:station:USF.COMPS:C10:1,2017-05-06T17:05:00Z,27.1690,-82.9260,1013.1,1111122 
COMPS,ioos:station:USF.COMPS:C10:1,2017-05-06T17:35:00Z,27.1690,-82.9260,1012.82,1111122 
COMPS,ioos:station:USF.COMPS:C10:1,2017-05-06T18:05:00Z,27.1690,-82.9260,1012.77,1111122 
COMPS,ioos:station:USF.COMPS:C10:1,2017-05-06T18:35:00Z,27.1690,-82.9260,1012.69,1111122 
COMPS,ioos:station:USF.COMPS:C10:1,2017-05-06T19:05:00Z,27.1690,-82.9260,1012.52,1111122 
COMPS,ioos:station:USF.COMPS:C10:1,2017-05-06T19:35:00Z,27.1690,-82.9260,1012.16,1111122 
COMPS,ioos:station:USF.COMPS:C10:1,2017-05-06T20:05:00Z,27.1690,-82.9260,1011.87,1111122 
COMPS,ioos:station:USF.COMPS:C10:1,2017-05-06T20:35:00Z,27.1690,-82.9260,1011.85,1111122 
COMPS,ioos:station:USF.COMPS:C10:1,2017-05-06T21:05:00Z,27.1690,-82.9260,1011.8,1111122 